Location: Christchurch
(43.5000°S, 172.6000°E)
Time: 16:35:24
(UTC+13:00)

ISS - Visible Passes

Search period start: 16 December 2017 00:00
Search period end: 26 December 2017 00:00
Orbit: 402 x 406 km, 51.6° (Epoch: 16 December)

Date Brightness Start Highest point End Pass type
(mag) Time Alt. Az. Time Alt. Az. Time Alt. Az.
16 Dec -2.8 01:54:17 48° S 01:54:17 48° S 01:57:10 10° SE visible
16 Dec -1.2 03:28:17 10° WSW 03:30:55 21° S 03:33:34 10° SE visible
16 Dec -1.3 05:05:24 10° SW 05:08:12 24° SSE 05:10:59 10° ESE visible
17 Dec -2.0 01:03:21 26° SE 01:03:21 26° SE 01:04:58 10° ESE visible
17 Dec -1.5 02:35:57 12° WSW 02:38:28 24° SSW 02:41:17 10° SE visible
17 Dec -1.1 04:13:06 10° SW 04:15:44 21° S 04:18:21 10° ESE visible
18 Dec -1.2 00:12:12 13° ESE 00:12:12 13° ESE 00:12:40 10° ESE visible
18 Dec -1.9 01:44:47 23° WSW 01:46:01 31° SSW 01:49:04 10° SE visible
18 Dec -1.0 03:20:41 10° SW 03:23:14 20° S 03:25:47 10° SE visible
18 Dec -1.8 04:57:19 10° SW 05:00:25 33° SSE 05:03:29 10° E visible
19 Dec -2.7 00:53:10 41° SW 00:53:38 44° SSW 00:56:53 10° SE visible
19 Dec -1.0 02:28:08 10° SW 02:30:44 20° S 02:33:19 10° SE visible
19 Dec -1.3 04:05:07 10° SW 04:07:59 25° SSE 04:10:50 10° ESE visible
20 Dec -3.6 00:00:00 33° WNW 00:01:18 72° SSW 00:04:39 10° SE visible
20 Dec -1.3 01:35:29 10° WSW 01:38:13 23° SSW 01:40:58 10° SE visible
20 Dec -1.1 03:12:49 10° SW 03:15:29 22° S 03:18:10 10° ESE visible
20 Dec -3.0 04:49:10 10° SW 04:52:29 58° SSE 04:55:46 10° ENE visible
20 Dec -3.9 23:05:45 10° NW 23:09:02 65° NE 23:12:21 10° ESE visible
21 Dec -1.6 00:42:47 10° W 00:45:44 28° SSW 00:48:42 10° SE visible
21 Dec -0.9 02:20:25 10° SW 02:22:58 20° S 02:25:31 10° SE visible
21 Dec -2.1 03:56:57 10° SW 04:00:06 37° SSE 04:03:14 10° E visible
21 Dec -3.2 22:13:47 10° NNW 22:16:49 35° NE 22:19:54 10° ESE visible
21 Dec -2.3 23:50:08 10° W 23:53:18 38° SSW 23:56:28 10° SE visible
22 Dec -0.9 01:27:52 10° SW 01:30:25 20° S 01:32:59 10° SE visible
22 Dec -1.5 03:04:42 10° SW 03:07:39 28° SSE 03:10:35 10° ESE visible
22 Dec -3.9 04:41:02 10° WSW 04:44:22 68° NW 04:47:40 10° NE visible
22 Dec -3.2 22:57:36 10° WNW 23:00:53 60° SSW 23:04:12 10° SE visible
23 Dec -1.1 00:35:12 10° WSW 00:37:52 22° S 00:40:33 10° SE visible
23 Dec -1.2 02:12:24 10° SW 02:15:08 23° S 02:17:52 10° ESE visible
23 Dec -3.5 03:48:43 10° SW 03:52:03 69° SSE 03:55:22 10° ENE visible
23 Dec -3.9 22:05:14 10° NW 22:08:33 80° NNE 22:11:54 10° ESE visible
23 Dec -1.4 23:42:27 10° WSW 23:45:20 26° SSW 23:48:13 10° SE visible
24 Dec -1.0 01:20:00 10° SW 01:22:34 20° S 01:25:10 10° SE visible
24 Dec -2.5 02:56:27 10° SW 02:59:40 43° SSE 03:02:52 10° E visible
24 Dec -3.0 04:33:06 10° WSW 04:36:04 29° NW 04:38:59 10° NNE visible
24 Dec -1.9 22:49:44 10° W 22:52:50 34° SSW 22:55:56 10° SE visible
25 Dec -0.9 00:27:27 10° SW 00:29:59 20° S 00:32:32 10° SE visible
25 Dec -1.8 02:04:10 10° SW 02:07:12 30° SSE 02:10:12 10° E visible
25 Dec -3.8 03:40:33 10° WSW 03:43:50 54° NW 03:47:05 10° NE visible
25 Dec -2.7 21:57:07 10° WNW 22:00:22 50° SSW 22:03:39 10° SE visible
25 Dec -1.0 23:34:46 10° WSW 23:37:23 21° S 23:40:02 10° SE visible
